Regional Weather Roundup
Issued by NWS

Home | Current Version | Previous Version | Graphics & Text | Print | Product List | Glossary On
Versions: 1 2 3 4 5 6 7 8 9 10 11 12 13 14 15 16 17 18 19 20 21 22 23 24 25 26 27 28 29 30 31 32 33 34 35 36 37 38 39 40 41 42 43 44 45 46 47 48 49 50
806
ASUS44 KMEG 261500
RWRTN
TENNESSEE HOURLY STATE WEATHER ROUNDUP
NATIONAL WEATHER SERVICE MEMPHIS TN
1000 AM CDT THU MAY 26 2016

TNZ002-004-019-021-049-052-054-088>092-261600-
WEST TENNESSEE

CITY           SKY/WX    TMP DP  RH WIND       PRES   REMARKS
MEMPHIS INTL   CLOUDY    81  72  74 SW12      30.07S
NWS MEMPHIS      N/A     80 N/A N/A MISG        N/A
JACKSON        MOSUNNY   80  72  76 SW12G21   30.09R
DYERSBURG      PTSUNNY   81  72  74 SW9       30.07R
UNION CITY     SUNNY     79  73  83 S12       30.06R
PARIS          SUNNY     79  70  73 SW10      30.08S
LEXINGTON      PTSUNNY   81  72  74 VRB7      30.09S
$$

TNZ008-025-027-028-033-062-065-066-261600-
NORTH MIDDLE TENNESSEE

CITY           SKY/WX    TMP DP  RH WIND       PRES   REMARKS
NASHVILLE      PTSUNNY   80  65  59 S8        30.12S
CLARKSVILLE    MOSUNNY   78  70  76 SW8       30.08S
COOKEVILLE     MOSUNNY   77  66  69 S9        30.16S
CROSSVILLE     SUNNY     73  62  68 S7        30.22S
$$

TNZ061-075-076-078-094-096-097-261600-
SOUTH MIDDLE TENNESSEE

CITY           SKY/WX    TMP DP  RH WIND       PRES   REMARKS
TULLAHOMA      MOSUNNY   79  64  61 SW9       30.17S
WINCHESTER     PTSUNNY   81  63  54 S6        30.17F
MCMINNVILLE    PTSUNNY   79  64  61 SW8       30.17S
COLUMBIA       SUNNY     81  70  69 SW9       30.11S
SHELBYVILLE    PTSUNNY   84  64  51 SW13      30.16R
$$

TNZ017-018-042-046-047-261600-
NORTHEAST TENNESSEE

CITY           SKY/WX    TMP DP  RH WIND       PRES   REMARKS
TRI CITIES     CLOUDY    73  62  68 SW8       30.22S
$$

TNZ012-013-036-069-073-074-261600-
CENTRAL EAST TENNESSEE

CITY           SKY/WX    TMP DP  RH WIND       PRES   REMARKS
KNOXVILLE      RAIN      68  64  87 E3        30.20F FOG
OAK RIDGE      CLOUDY    69  64  84 CALM      30.21F
GATLINBURG     PTSUNNY   68  63  83 CALM      30.21S
$$

TNZ083-085-099-261600-
SOUTHEAST TENNESSEE

CITY           SKY/WX    TMP DP  RH WIND       PRES   REMARKS
CHATTANOOGA    MOSUNNY   81  60  48 S9        30.18S
$$

SKY/WX REPORTED AS FAIR MEANS FEW OR NO CLOUDS BELOW
12 THOUSAND FEET.





USA.gov is the U.S. government's official web portal to all federal, state and local government web resources and services.